Total_Precipitation_Accumulation
0.20 0.37 0.65 0.81 1.16 1.65 1.61 1.32 0.87 0.60 0.58 0.66 0.62 0.59 0.75 0.91 1.28 2.32 2.42 2.21 1.48 1.34 1.60 1.64 1.65 1.48 1.36 1.37 1.44 1.36 1.27 1.24 1.33 1.39 1.50 1.62 1.75 1.71 1.70 1.87 2.14 2.37 2.52 2.64 2.71 2.66 2.64 2.54 2.39
0.31 0.49 0.62 0.77 1.36 1.83 1.62 1.26 0.77 0.60 0.49 0.55 0.61 0.55 0.74 0.86 0.90 1.44 1.89 1.73 1.11 0.99 1.20 1.22 1.35 1.33 1.24 1.14 1.21 1.28 1.20 1.22 1.29 1.50 1.74 1.86 1.98 1.96 1.97 2.13 2.29 2.46 2.48 2.50 2.50 2.48 2.39 2.33 2.23
0.27 0.43 0.59 0.77 1.10 1.30 1.13 0.85 0.49 0.42 0.35 0.41 0.53 0.48 0.72 1.13 1.03 1.29 1.52 1.31 0.97 0.91 1.00 1.14 1.09 1.03 1.11 1.11 1.13 1.24 1.30 1.29 1.27 1.46 1.69 1.91 2.19 2.25 2.37 2.48 2.60 2.61 2.45 2.32 2.30 2.30 2.12 2.09 2.04
0.29 0.39 0.42 0.50 0.67 0.70 0.56 0.51 0.36 0.34 0.34 0.33 0.44 0.62 0.98 1.05 0.97 1.12 1.15 1.05 0.80 0.77 0.80 0.87 1.04 1.00 1.04 1.08 1.06 1.10 1.25 1.36 1.44 1.57 1.77 1.94 2.23 2.46 2.68 2.66 2.66 2.56 2.35 2.28 2.19 2.09 1.99 2.04 2.10
0.32 0.36 0.38 0.36 0.40 0.50 0.46 0.40 0.32 0.34 0.31 0.36 0.48 0.87 1.41 1.29 0.94 0.92 0.95 0.88 0.73 0.66 0.75 0.79 0.93 0.99 1.00 0.97 1.05 1.09 1.14 1.36 1.52 1.57 1.68 1.86 2.08 2.44 2.56 2.53 2.46 2.29 2.20 2.14 2.09 2.05 1.96 1.98 2.06
0.21 0.23 0.29 0.25 0.30 0.37 0.37 0.31 0.30 0.27 0.29 0.42 0.60 0.92 1.44 1.43 1.19 1.11 1.12 0.98 0.92 0.72 0.66 0.81 0.93 0.96 0.92 0.89 0.97 1.02 1.12 1.31 1.51 1.57 1.64 1.77 1.94 2.17 2.22 2.20 2.16 2.04 2.06 2.03 2.02 2.03 1.91 1.83 2.00
0.18 0.14 0.16 0.17 0.22 0.29 0.31 0.28 0.28 0.26 0.35 0.52 0.69 1.05 1.39 1.61 1.42 1.24 1.34 1.42 1.20 0.94 0.83 0.87 0.88 0.83 0.86 0.94 0.97 1.07 1.26 1.43 1.55 1.59 1.64 1.84 1.96 2.00 1.90 1.96 1.97 1.94 1.97 1.96 1.87 1.81 1.73 1.67 1.83
0.08 0.09 0.12 0.11 0.14 0.24 0.22 0.21 0.20 0.25 0.39 0.47 0.65 1.09 1.46 1.42 1.39 1.38 1.54 1.67 1.59 1.23 1.09 0.98 0.94 0.94 0.87 0.93 1.11 1.21 1.38 1.59 1.70 1.74 1.87 2.04 2.10 2.02 2.01 1.93 1.98 2.01 2.11 2.06 1.96 1.83 1.75 1.75 1.78
0.05 0.07 0.09 0.08 0.09 0.16 0.14 0.17 0.21 0.19 0.24 0.42 0.61 0.92 1.04 0.99 1.14 1.35 1.56 1.75 1.94 1.69 1.35 1.18 1.08 1.11 1.12 1.02 1.11 1.36 1.54 1.70 1.82 2.10 2.36 2.50 2.45 2.26 2.40 2.20 2.35 2.36 2.38 2.36 2.36 2.26 2.10 1.95 1.83
0.03 0.03 0.04 0.04 0.04 0.06 0.10 0.15 0.20 0.18 0.37 0.64 0.79 0.90 0.83 0.99 1.11 1.35 1.53 1.66 1.80 1.91 1.49 1.36 1.20 1.14 1.17 1.30 1.59 1.79 1.66 1.88 2.20 2.54 2.72 2.94 2.86 2.77 2.38 2.61 2.89 3.07 3.24 3.19 3.09 2.93 2.47 2.05 1.89
0.01 0.03 0.03 0.03 0.02 0.03 0.09 0.09 0.15 0.19 0.53 0.99 1.15 1.17 1.10 1.07 1.21 1.48 1.75 1.83 1.70 1.77 1.55 1.48 1.50 1.53 1.41 1.55 1.79 2.01 2.05 2.25 2.45 2.57 2.77 2.95 2.65 2.58 2.65 2.91 3.24 3.41 3.56 3.43 3.39 3.30 2.80 2.51 2.45
0.01 0.01 0.02 0.02 0.02 0.04 0.07 0.09 0.14 0.22 0.52 0.80 1.08 1.07 1.22 1.21 1.31 1.58 1.93 2.13 2.12 2.25 2.02 1.87 1.92 1.89 1.85 1.82 1.99 2.13 2.16 2.26 2.43 2.61 2.61 2.72 2.84 2.92 3.05 3.36 3.33 3.46 3.58 3.91 3.52 3.60 3.30 2.95 2.72
0.01 0.02 0.02 0.03 0.03 0.04 0.08 0.16 0.16 0.27 0.38 0.58 0.83 0.85 0.93 1.25 1.64 2.04 2.44 2.47 2.61 2.84 2.81 2.55 2.31 2.18 2.20 2.36 2.36 2.24 2.34 2.45 2.56 2.75 2.73 2.72 3.00 3.17 3.25 3.31 3.47 3.22 3.27 3.69 3.83 3.56 3.66 3.60 3.25
0.01 0.02 0.02 0.04 0.04 0.06 0.10 0.22 0.28 0.37 0.46 0.52 0.78 1.02 1.08 1.44 1.78 2.38 3.06 3.00 2.79 3.01 3.11 2.88 2.72 2.61 2.64 2.90 2.99 2.82 2.60 2.82 2.87 2.85 2.79 2.86 3.11 3.47 3.65 3.55 3.67 3.45 3.23 3.44 3.63 3.57 4.15 3.97 3.73
0.02 0.04 0.05 0.07 0.08 0.12 0.17 0.39 0.52 0.53 0.50 0.58 0.88 1.21 1.45 1.61 1.94 2.31 2.73 3.08 3.22 3.32 3.25 3.21 3.17 3.10 3.23 3.36 3.30 3.03 2.95 2.83 2.90 2.99 3.06 3.06 3.08 3.47 3.69 3.88 3.83 3.60 3.37 3.54 3.61 3.79 4.03 3.76 3.55
0.03 0.07 0.11 0.13 0.14 0.15 0.24 0.64 0.64 0.53 0.53 0.84 1.04 1.38 1.72 1.79 2.04 2.46 2.83 3.37 3.63 3.67 3.67 3.67 3.48 3.57 3.74 3.82 3.68 3.47 3.33 3.14 2.95 2.90 3.09 3.15 3.23 3.47 3.69 3.65 3.56 3.66 3.59 3.78 4.02 4.10 4.07 3.93 3.74
0.09 0.13 0.16 0.16 0.18 0.16 0.22 0.48 0.62 0.57 0.76 1.03 1.27 1.59 1.89 2.16 2.60 3.11 3.38 3.49 3.84 4.18 4.36 4.38 4.30 4.19 4.13 4.09 4.01 4.04 3.99 3.75 3.40 3.24 3.26 3.29 3.18 3.25 3.51 3.53 3.64 3.73 3.75 3.78 3.47 4.01 4.00 4.03 3.84
0.12 0.11 0.15 0.19 0.17 0.19 0.27 0.43 0.54 0.63 0.85 1.27 1.64 1.88 2.15 2.55 3.06 3.43 3.70 4.04 4.19 4.47 4.98 4.95 4.80 4.79 4.80 4.76 4.46 4.43 4.20 3.91 3.76 3.67 3.77 3.55 3.37 3.29 3.53 3.52 3.64 3.67 3.79 3.83 3.76 4.02 3.97 3.79 3.73
0.09 0.12 0.17 0.20 0.17 0.21 0.37 0.56 0.61 0.80 1.09 1.40 1.74 1.98 2.32 2.66 3.03 3.47 3.55 3.81 4.14 4.75 5.23 5.47 5.51 5.37 5.12 4.83 4.46 4.22 4.13 4.08 3.91 3.73 3.54 3.42 3.34 3.40 3.75 3.62 3.94 3.84 3.64 3.61 3.68 3.94 3.83 3.55 3.58
0.10 0.13 0.17 0.20 0.17 0.20 0.40 0.60 0.69 1.03 1.36 1.41 1.58 1.72 1.91 2.35 2.70 3.04 3.24 3.33 3.76 4.35 4.81 4.99 4.76 4.67 4.53 4.34 4.26 4.21 4.39 4.09 3.86 3.73 3.56 3.27 3.22 3.32 3.35 3.66 3.57 3.60 3.72 3.60 3.60 3.86 3.68 3.25 3.39
0.09 0.10 0.14 0.20 0.20 0.27 0.42 0.78 0.97 1.19 1.33 1.35 1.45 1.60 1.71 1.99 2.31 2.64 2.79 2.94 3.19 3.32 3.60 3.80 3.96 3.89 3.81 3.81 3.79 3.83 4.08 3.91 3.76 3.64 3.54 3.15 2.95 2.92 3.06 3.15 3.25 3.58 3.49 3.55 3.63 3.58 3.51 3.25 3.19
0.09 0.09 0.09 0.14 0.22 0.36 0.50 1.08 1.33 1.28 1.32 1.44 1.43 1.41 1.65 1.95 1.94 2.06 2.31 2.48 2.77 2.96 3.16 3.24 3.28 3.39 3.41 3.50 3.42 3.27 3.23 3.23 3.21 3.28 3.21 3.13 2.94 2.81 2.85 2.90 2.97 3.08 2.98 3.15 2.89 3.04 3.34 3.47 3.17
0.07 0.07 0.09 0.17 0.27 0.38 0.49 0.82 1.24 1.57 1.63 1.43 1.36 1.25 1.45 1.59 1.50 1.49 1.69 1.84 2.12 2.37 2.61 2.74 2.84 2.95 3.10 3.16 3.13 3.11 2.94 2.96 3.03 3.10 3.10 3.04 2.96 2.89 2.85 2.84 2.86 2.79 2.65 2.77 2.80 3.04 3.06 3.07 3.06
0.06 0.10 0.17 0.31 0.49 0.74 0.62 0.75 1.17 1.52 1.78 1.52 1.30 1.20 1.30 1.28 1.25 1.37 1.52 1.63 1.80 2.10 2.30 2.40 2.53 2.58 2.71 2.77 2.87 2.96 2.95 2.90 2.90 2.92 2.91 2.89 2.88 2.76 2.69 2.65 2.70 2.64 2.60 2.68 2.77 2.90 2.82 2.87 3.02
0.07 0.17 0.54 0.92 1.19 1.22 0.80 0.83 1.17 1.17 1.21 1.24 1.20 1.23 1.24 1.18 1.14 1.14 1.23 1.38 1.58 1.82 2.00 2.05 2.15 2.23 2.24 2.29 2.45 2.60 2.67 2.73 2.61 2.55 2.57 2.58 2.41 2.30 2.38 2.32 2.46 2.46 2.48 2.52 2.67 2.74 2.72 2.86 3.01
0.12 0.18 0.60 0.93 0.96 1.03 0.89 1.15 1.48 1.17 1.08 1.02 1.10 1.20 1.19 1.05 0.98 1.01 1.11 1.17 1.26 1.46 1.69 1.74 1.83 1.94 2.10 2.13 2.21 2.34 2.36 2.37 2.25 2.34 2.33 2.28 2.06 1.99 2.17 2.30 2.34 2.33 2.33 2.40 2.67 2.51 2.54 2.73 2.77
0.17 0.19 0.26 0.49 0.58 0.77 0.99 1.28 1.44 1.13 1.09 1.20 1.32 1.30 1.24 0.99 0.84 0.86 0.87 0.91 0.94 1.06 1.23 1.36 1.62 1.77 1.88 1.97 2.07 2.09 2.07 2.13 2.09 2.16 2.30 2.19 2.17 2.03 2.10 2.14 2.24 2.33 2.46 2.60 2.74 2.55 2.66 2.88 2.75
0.16 0.16 0.20 0.39 0.62 0.83 0.95 1.32 1.63 1.57 1.41 1.34 1.40 1.24 0.97 0.80 0.70 0.65 0.66 0.66 0.75 0.87 0.98 1.14 1.34 1.44 1.56 1.76 1.88 1.80 1.99 2.07 2.06 2.06 2.00 2.03 2.11 2.09 1.98 1.93 2.00 2.05 2.16 2.32 2.47 2.38 2.52 2.76 2.71
0.19 0.22 0.29 0.42 0.47 0.70 1.08 1.30 1.24 1.28 1.21 1.25 1.24 1.07 0.84 0.68 0.62 0.63 0.63 0.66 0.72 0.79 0.94 1.12 1.33 1.48 1.49 1.59 1.72 1.77 1.87 2.00 2.04 1.96 1.87 1.91 1.98 2.03 1.96 1.94 1.93 1.90 1.86 1.94 2.10 2.10 2.32 2.36 2.36
0.17 0.20 0.29 0.43 0.43 0.47 0.77 1.02 0.71 0.75 0.77 0.85 0.91 0.79 0.73 0.69 0.64 0.71 0.76 0.77 0.78 0.87 1.02 1.18 1.31 1.47 1.54 1.66 1.86 2.00 1.96 1.95 1.99 1.95 1.85 1.76 1.72 1.80 1.90 1.95 1.87 1.73 1.77 1.91 1.92 1.97 2.19 2.28 2.25